Seychelles International Airport, Seychelles

10:39 AM +04 on May 23, 2017 (GMT +0400)
Seychelles International Airport

Weather History for 63980 - October, 2013

Change the Weather History Date:

Thursday, October 3, 2013

  Actual Average Record
Temperature  
Mean Temperature 78 °F -  
Max Temperature 82 °F 83 °F - ()
Min Temperature 74 °F 75 °F - ()
Cooling Degree Days 13    
Growing Degree Days 28 (Base 50)    
Moisture  
Dew Point 75 °F    
Average Humidity 86    
Maximum Humidity 94    
Minimum Humidity 74    
Precipitation  
Precipitation 0.47 in 0.27 in - ()
Sea Level Pressure  
Sea Level Pressure 29.88 in    
Wind  
Wind Speed 10 mph ()    
Max Wind Speed 21 mph    
Max Gust Speed 26 mph    
Visibility 6.7 miles    
Events Rain    
T = Trace of Precipitation, MM = Missing Value Source: Averaged Metar Reports

Daily Weather History Graph

Daily Weather History Graph

Search for Another Location

Airport or City:

Trip Planner

Search our weather history database for the weather conditions in past years. The results will help you decide how hot, cold, wet, or windy it might be!

Date:

Astronomy

Oct. 03, 2013 Rise Set
Actual Time 6:02 AM +04 6:11 PM +04
Civil Twilight 5:41 AM +04 6:32 PM +04
Nautical Twilight 5:17 AM +04 6:56 PM +04
Astronomical Twilight 4:53 AM +04 7:20 PM +04
Moon 4:32 AM +04 (10/3) 4:53 PM +04 (10/3)
Length of Visible Light 12h 50m
Length of Day
12h 09m
Waning Crescent, 3% of the Moon is Illuminated
Oct 3
Waning Crescent
Oct 5
New
Oct 12
First Quarter
Oct 19
Full
Oct 27
Last Quarter

Hourly Weather History & Observations

Time (+04) Temp. Heat Index Dew Point Humidity Pressure Visibility Wind Dir Wind Speed Gust Speed Precip Events Conditions
12:00 AM 77.0 °F - 73.4 °F 89% 29.89 in 6.2 mi SSE 8.1 mph - N/A   Mostly Cloudy
1:00 AM 78.8 °F - 73.4 °F 83% 29.86 in 6.2 mi SSE 9.2 mph - N/A   Mostly Cloudy
2:00 AM 80.6 °F 86.2 °F 75.2 °F 84% 29.83 in - North - - N/A   Scattered Clouds
3:00 AM 78.8 °F - 75.2 °F 89% 29.86 in 6.2 mi ESE 16.1 mph - N/A   Mostly Cloudy
4:00 AM 77 °F - 74 °F 87% 29.86 in 6 mi SSE 11.5 mph - - Rain Light Rain Showers
4:00 AM 77.0 °F - 73.4 °F 89% 29.86 in 6.2 mi SSE 11.5 mph - N/A Rain Light Rain Showers
5:00 AM 78.8 °F - 75.2 °F 89% 29.86 in 6.2 mi SSE 13.8 mph - N/A   Mostly Cloudy
6:00 AM 78.8 °F - 75.2 °F 89% 29.86 in 6.2 mi SSE 11.5 mph - N/A   Mostly Cloudy
7:00 AM 80.6 °F 86.2 °F 75.2 °F 84% 29.89 in 6.2 mi SSE 15.0 mph - N/A   Scattered Clouds
8:00 AM 80.6 °F 86.2 °F 75.2 °F 84% 29.89 in 6.2 mi SE 13.8 mph - N/A   Scattered Clouds
9:00 AM 82.4 °F 90.9 °F 77.0 °F 84% 29.95 in 6.2 mi ESE 13.8 mph - N/A   Mostly Cloudy
10:00 AM 82 °F - 76 °F 78% 29.94 in 12 mi SE 13.8 mph - -   Partly Cloudy
10:00 AM 82.4 °F 90.9 °F 77.0 °F 84% 29.92 in 6.2 mi SE 13.8 mph - N/A   Mostly Cloudy
11:00 AM 82.4 °F 88.2 °F 73.4 °F 74% 29.92 in 6.2 mi ESE 20.7 mph - N/A   Mostly Cloudy
12:00 PM 80.6 °F 85.4 °F 73.4 °F 79% 29.89 in 6.2 mi SE 13.8 mph - N/A   Mostly Cloudy
1:00 PM 80.6 °F 86.2 °F 75.2 °F 84% 29.86 in 6.2 mi SE 12.7 mph - N/A   Mostly Cloudy
2:00 PM 77.0 °F - 75.2 °F 94% 29.86 in 3.1 mi East 13.8 mph 26.5 mph N/A Rain Light Rain Showers
3:00 PM 77.0 °F - 73.4 °F 89% 29.86 in 5.0 mi SSW 5.8 mph - N/A Rain Light Rain Showers
4:00 PM 76 °F - 73 °F 87% 29.85 in 25 mi West 4.6 mph - - Rain Light Rain Showers
4:00 PM 77.0 °F - 73.4 °F 89% 29.83 in 6.2 mi West 4.6 mph - N/A   Partly Cloudy
5:00 PM 77.0 °F - 73.4 °F 89% 29.86 in 6.2 mi SE 8.1 mph - N/A   Mostly Cloudy
6:00 PM 78.8 °F - 73.4 °F 83% 29.86 in 6.2 mi SE 8.1 mph - N/A   Mostly Cloudy
7:00 PM 78.8 °F - 75.2 °F 89% 29.89 in 6.2 mi SE 8.1 mph - N/A   Mostly Cloudy
8:00 PM 80.6 °F 86.2 °F 75.2 °F 84% 29.89 in 6.2 mi SE 9.2 mph - N/A   Mostly Cloudy
9:00 PM 80.6 °F 86.2 °F 75.2 °F 84% 29.92 in 6.2 mi SE 9.2 mph - N/A   Mostly Cloudy
10:00 PM 80 °F - 76 °F 84% 29.94 in 19 mi SSE 6.9 mph - -   Mostly Cloudy
10:00 PM 80.6 °F 87.1 °F 77.0 °F 89% 29.92 in 6.2 mi SSE 6.9 mph - N/A   Mostly Cloudy
11:00 PM 80.6 °F 86.2 °F 75.2 °F 84% 29.92 in 6.2 mi SE 11.5 mph - N/A   Mostly Cloudy